Granada, Spain

10:17 PM CEST on September 26, 2017 (GMT +0200)
Granada

Weather History for LEGR - February, 2013

Change the Weather History Date:

Thursday, February 28, 2013

  Actual Average Record
Temperature  
Mean Temperature 40 °F -  
Max Temperature 47 °F 64 °F 73 °F (1997)
Min Temperature 33 °F 38 °F 30 °F (2004)
Degree Days  
Heating Degree Days 25    
Moisture  
Dew Point 35 °F    
Average Humidity 82    
Maximum Humidity 100    
Minimum Humidity 56    
Precipitation  
Precipitation 0.51 in - - ()
Sea Level Pressure  
Sea Level Pressure 29.77 in    
Wind  
Wind Speed 6 mph ()    
Max Wind Speed 15 mph    
Max Gust Speed -    
Visibility 6.5 miles    
Events Rain , Snow , Thunderstorm    
Averages and records for this station are not official NWS values.
T = Trace of Precipitation, MM = Missing Value Source: Averaged Metar Reports

Daily Weather History Graph

Daily Weather History Graph

Search for Another Location

Airport or City:

Trip Planner

Search our weather history database for the weather conditions in past years. The results will help you decide how hot, cold, wet, or windy it might be!

Date:

Astronomy

Feb. 28, 2013 Rise Set
Actual Time 7:47 AM CET 7:08 PM CET
Civil Twilight 7:21 AM CET 7:34 PM CET
Nautical Twilight 6:51 AM CET 8:04 PM CET
Astronomical Twilight 6:21 AM CET 8:34 PM CET
Moon 10:13 PM CET (2/28) 8:53 AM CET (2/28)
Length of Visible Light 12h 13m
Length of Day
11h 20m
Waning Gibbous, 92% of the Moon is Illuminated
Feb 28
Waning Gibbous
Mar 4
Last Quarter
Mar 11
New
Mar 19
First Quarter
Mar 27
Full

Hourly Weather History & Observations

Time (CET) Temp. Windchill Dew Point Humidity Pressure Visibility Wind Dir Wind Speed Gust Speed Precip Events Conditions
6:00 AM 42.8 °F 39.3 °F 33.8 °F 70% 29.71 in 6.2 mi NE 5.8 mph - N/A   Scattered Clouds
6:30 AM 42.8 °F 39.3 °F 35.6 °F 76% 29.71 in 6.2 mi NE 5.8 mph - N/A Rain Light Rain
7:00 AM 42 °F - 32 °F 58% 29.77 in 12 mi NNE 2.3 mph - - Rain Light Rain
7:00 AM 42.8 °F 41.1 °F 35.6 °F 76% 29.71 in 6.2 mi NNE 3.5 mph - N/A Rain Rain Showers
7:37 AM 33.8 °F 24.8 °F 33.8 °F 100% 29.80 in 0.6 mi West 12.7 mph - N/A Snow Snow
8:00 AM 33.8 °F - 33.8 °F 100% 29.77 in 1.9 mi Variable 2.3 mph - N/A Snow Light Snow
8:14 AM 33.8 °F - 33.8 °F 100% 29.77 in 1.9 mi Variable 1.2 mph - N/A Snow , Thunderstorm Thunderstorms and Snow
8:30 AM 33.8 °F 27.0 °F 33.8 °F 100% 29.77 in 2.5 mi ESE 8.1 mph - N/A Rain Rain Showers
9:30 AM 35.6 °F 30.7 °F 35.6 °F 100% 29.77 in 6.2 mi ESE 5.8 mph - N/A   Mostly Cloudy
10:00 AM 37.4 °F - 35.6 °F 93% 29.77 in 6.2 mi Variable 2.3 mph - N/A   Mostly Cloudy
10:30 AM 37.4 °F - 37.4 °F 100% 29.77 in 6.2 mi Calm Calm - N/A   Mostly Cloudy
11:00 AM 37.4 °F 34.9 °F 37.4 °F 100% 29.77 in 6.2 mi WNW 3.5 mph - N/A   Mostly Cloudy
11:30 AM 39.2 °F - 37.4 °F 93% 29.77 in 6.2 mi Calm Calm - N/A   Mostly Cloudy
12:30 PM 44.6 °F - 41.0 °F 87% 29.77 in 6.2 mi Variable 2.3 mph - N/A   Mostly Cloudy
1:00 PM 44 °F - 37 °F 68% 29.79 in 16 mi NW 5.8 mph - -   Mostly Cloudy
1:00 PM 42.8 °F 40.1 °F 39.2 °F 87% 29.74 in 6.2 mi NW 4.6 mph - N/A   Scattered Clouds
1:30 PM 42.8 °F 36.6 °F 39.2 °F 87% 29.77 in 6.2 mi WNW 11.5 mph - N/A   Scattered Clouds
2:00 PM 44.6 °F 38.4 °F 37.4 °F 76% 29.77 in 6.2 mi West 12.7 mph - N/A   Scattered Clouds
2:30 PM 46.4 °F 40.4 °F 35.6 °F 66% 29.74 in 6.2 mi West 13.8 mph - N/A   Scattered Clouds
3:00 PM 46.4 °F 40.1 °F 37.4 °F 71% 29.74 in 6.2 mi WNW 15.0 mph - N/A   Scattered Clouds
3:30 PM 46.4 °F 41.1 °F 33.8 °F 62% 29.74 in 6.2 mi WNW 11.5 mph - N/A   Scattered Clouds
4:30 PM 46.4 °F 41.9 °F 33.8 °F 62% 29.74 in 6.2 mi West 9.2 mph - N/A   Mostly Cloudy
5:00 PM 44.6 °F 38.1 °F 32.0 °F 61% 29.74 in 6.2 mi West 13.8 mph - N/A   Mostly Cloudy
5:30 PM 44.6 °F 38.8 °F 32.0 °F 61% 29.77 in 6.2 mi West 11.5 mph - N/A   Mostly Cloudy
6:00 PM 42.8 °F 36.6 °F 33.8 °F 70% 29.77 in 6.2 mi WNW 11.5 mph - N/A   Mostly Cloudy
6:30 PM 41.0 °F 35.2 °F 33.8 °F 76% 29.74 in 6.2 mi West 9.2 mph - N/A   Mostly Cloudy
7:00 PM 40 °F - 30 °F 56% 29.82 in 19 mi West 10.4 mph - -   Mostly Cloudy
7:00 PM 41.0 °F 34.7 °F 35.6 °F 81% 29.77 in 6.2 mi West 10.4 mph - N/A   Mostly Cloudy
7:30 PM 39.2 °F 33.6 °F 35.6 °F 87% 29.77 in 6.2 mi West 8.1 mph - N/A   Mostly Cloudy
8:00 PM 39.2 °F 35.0 °F 35.6 °F 87% 29.77 in 6.2 mi West 5.8 mph - N/A   Mostly Cloudy
8:30 PM 39.2 °F 33.6 °F 35.6 °F 87% 29.77 in 6.2 mi West 8.1 mph - N/A   Mostly Cloudy
9:00 PM 39.2 °F 32.5 °F 35.6 °F 87% 29.77 in 6.2 mi West 10.4 mph - N/A   Mostly Cloudy
9:30 PM 39.2 °F 31.6 °F 35.6 °F 87% 29.80 in 6.2 mi West 12.7 mph - N/A   Scattered Clouds
10:00 PM 37.4 °F 32.1 °F 35.6 °F 93% 29.80 in 6.2 mi West 6.9 mph - N/A   Scattered Clouds
10:30 PM 39.2 °F 33.6 °F 35.6 °F 87% 29.80 in 6.2 mi WNW 8.1 mph - N/A   Scattered Clouds
11:00 PM 39.2 °F 32.5 °F 35.6 °F 87% 29.83 in 6.2 mi West 10.4 mph - N/A   Scattered Clouds